[[{"header":{"parameterUnit":"m.s-1","parameterCategory":1,"la1":30.2991,"la2":30.254,"lo1":-89.0895,"lo2":-89.0444,"dy":0.0017,"dx":0.0017,"nx":28,"ny":28,"refTime":"2025-05-29T21:00:00:Z","depth":0,"parameterNumber":2,"parameterNumberName":"U-component_of_WINDS"},"data":[0,0,0,0,0,0,0,0,0,0,0,0,0,0,0,0,0,0,0,0,0,0,0,0,0,0,0,0,0,0,0,0,0,0,0,0,0,0,0,0,0,0,0,0,0,0,0,0,0,0,0,0,0,0,0,0,0,0,-0.6548,-0.6549,0,-0.6653,-0.6654,-0.6655,-0.6643,-0.6642,-0.664,-0.6639,-0.675,-0.6755,-0.6759,0,0,0,0,0,0,0,0,0,0,0,0,0,-0.634,-0.6344,-0.6547,-0.6549,-0.655,-0.6653,-0.6654,-0.6656,-0.6644,-0.6642,-0.664,-0.6638,-0.6749,-0.6754,-0.676,0,0,0,0,0,0,0,0,0,0,0,0,0,-0.6436,-0.6345,-0.6547,-0.6556,-0.6558,-0.6652,-0.6654,-0.6656,-0.6644,-0.6642,-0.6639,-0.6637,-0.6747,-0.6754,-0.676,-0.6853,0,0,-0.6781,-0.6784,0,0,0,0,0,0,0,0,-0.6431,-0.6444,-0.6554,-0.6556,-0.6558,-0.6632,-0.6622,-0.6722,-0.6645,-0.6612,-0.6638,-0.6636,-0.6713,-0.6723,-0.6748,-0.6858,-0.6863,-0.6782,-0.6786,-0.6789,-0.6791,0,0,0,0,0,0,0,-0.6424,-0.6439,-0.6589,-0.6555,-0.6558,-0.6557,-0.6567,-0.6641,-0.6676,-0.6614,-0.6614,-0.6626,-0.6714,-0.6742,-0.6751,-0.6865,-0.6782,-0.6788,-0.6792,-0.6795,-0.7058,-0.706,0,0,0,0,0,0,-0.6415,-0.6434,-0.6586,-0.6592,-0.6487,-0.6562,-0.6575,-0.6611,-0.6675,-0.6682,-0.6628,-0.6625,-0.6731,-0.6743,-0.6755,-0.6869,-0.6789,-0.6795,-0.6799,-0.7055,-0.7058,-0.7061,0,0,0,0,0,0,-0.641,-0.6428,-0.6582,-0.6513,-0.6532,-0.6569,-0.661,-0.6615,-0.6642,-0.6685,-0.6692,-0.665,-0.673,-0.6745,-0.6829,-0.6872,-0.6798,-0.6805,-0.7051,-0.7056,-0.706,-0.7097,0,0,0,0,0,0,-0.6404,-0.6427,-0.6461,-0.6514,-0.6536,-0.6653,-0.6612,-0.6618,-0.6653,-0.6651,-0.6707,-0.6714,-0.6729,-0.6819,-0.6836,-0.688,-0.681,-0.7048,-0.7053,-0.7059,-0.7092,-0.7102,-0.711,0,0,0,0,0,-0.6397,-0.6468,-0.6463,-0.6482,-0.658,-0.6655,-0.6668,-0.6683,-0.6657,-0.6693,-0.6721,-0.6712,-0.6864,-0.6827,-0.6846,-0.6894,-0.7045,-0.7052,-0.7058,-0.7088,-0.71,-0.711,0,0,0,0,0,0,-0.6422,-0.6475,-0.647,-0.6561,-0.6603,-0.6653,-0.6699,-0.6695,-0.6747,-0.6743,-0.6759,-0.6772,-0.6857,-0.6884,-0.6841,-0.6988,-0.6951,-0.6962,-0.6967,-0.6979,-0.6988,-0.6981,-0.6816,0,0,0,0,0,-0.6437,-0.6493,-0.6537,-0.6613,-0.6634,-0.6663,-0.6696,-0.6704,-0.6749,-0.6768,-0.6801,-0.6847,-0.6905,-0.6943,-0.6999,-0.7095,-0.7108,-0.7137,-0.7146,-0.7153,-0.7163,-0.7217,-0.7231,-0.7083,-0.7083,-0.7083,0,0,-0.6471,-0.6507,-0.6541,-0.6618,-0.6652,-0.6711,-0.6678,-0.6741,-0.6786,-0.6778,-0.6859,-0.6885,-0.6937,-0.7028,-0.7069,-0.7053,-0.7207,-0.7162,-0.7167,-0.7173,-0.7225,-0.7239,-0.7252,-0.7087,-0.7086,-0.7086,0,0,-0.6562,-0.6594,-0.6661,-0.6696,-0.6747,-0.6766,-0.6782,-0.6832,-0.6849,-0.6931,-0.6926,-0.6979,-0.7079,-0.7116,-0.7149,-0.7254,-0.7249,-0.7271,-0.7321,-0.7373,-0.7385,-0.7395,-0.7435,-0.7448,-0.728,-0.7281,-0.7281,0,-0.6598,-0.6685,-0.6697,-0.6761,-0.6795,-0.6789,-0.6858,-0.6891,-0.6959,-0.6984,-0.6963,-0.7088,-0.7123,-0.7222,-0.7248,-0.7274,-0.7294,-0.7266,-0.7382,-0.7392,-0.7402,-0.744,-0.7455,-0.7283,-0.7283,-0.7283,-0.7282,0,-0.6727,-0.6788,-0.6836,-0.69,-0.694,-0.7006,-0.7029,-0.7068,-0.7071,-0.7092,-0.7176,-0.7217,-0.7282,-0.7305,-0.731,-0.7406,-0.7394,-0.7378,-0.7342,-0.7419,-0.7455,-0.7469,-0.7287,-0.7286,-0.7285,-0.7284,0,0,-0.6839,-0.6908,-0.6926,-0.6955,-0.7011,-0.7059,-0.7125,-0.7187,-0.7221,-0.7267,-0.7324,-0.7408,-0.7393,-0.743,-0.7438,-0.7484,-0.7567,-0.7462,-0.7464,-0.7482,-0.7678,-0.7691,-0.7708,-0.7563,-0.7566,-0.7568,-0.7674,0,-0.6938,-0.7053,-0.7066,-0.717,-0.7227,-0.7221,-0.7279,-0.732,-0.7342,-0.7394,-0.7418,-0.7478,-0.7452,-0.7474,-0.7519,-0.7547,-0.7607,-0.7539,-0.7618,-0.7621,-0.7607,-0.7726,-0.7741,-0.7839,-0.7688,-0.769,-0.7692,0,-0.7068,-0.7118,-0.7227,-0.7276,-0.73,-0.7352,-0.741,-0.7459,-0.7506,-0.7518,-0.7559,-0.7561,-0.7631,-0.7591,-0.7688,-0.7642,-0.7675,-0.7694,-0.7698,-0.7708,-0.7663,-0.7741,-0.787,-0.7886,-0.7714,-0.7712,-0.771,0,-0.7141,-0.7235,-0.7313,-0.7338,-0.7396,-0.7433,-0.7459,-0.7503,-0.754,-0.7591,-0.7615,-0.7673,-0.7706,-0.7752,-0.7771,-0.774,-0.7868,-0.7829,-0.7882,-0.7882,-0.7911,-0.7909,-0.8049,-0.7928,-0.7928,-0.7928,-0.7928,0,-0.7251,-0.7319,-0.7346,-0.7395,-0.7471,-0.7484,-0.756,-0.7584,-0.7624,-0.7678,-0.7676,-0.7727,-0.7748,-0.7803,-0.7818,-0.7897,-0.7911,-0.7925,-0.7928,-0.7926,-0.7925,-0.7949,-0.7944,-0.7932,-0.7931,-0.793,-0.7929,0,-0.7347,-0.7367,-0.7452,-0.75,-0.7513,-0.7567,-0.7609,-0.7656,-0.7676,-0.7745,-0.7761,-0.7794,-0.7858,-0.788,-0.7959,-0.7969,-0.8061,-0.8058,-0.8045,-0.8047,-0.8099,-0.8095,-0.8262,-0.8286,-0.8147,-0.8148,-0.8149,0,-0.7416,-0.7468,-0.7521,-0.7556,-0.7584,-0.7641,-0.7678,-0.7693,-0.7732,-0.7789,-0.783,-0.7893,-0.7945,-0.8048,-0.808,-0.814,-0.8139,-0.8194,-0.8149,-0.8145,-0.8143,-0.814,-0.8146,-0.8203,-0.8204,-0.8206,-0.8206,0,-0.7539,-0.7546,-0.7599,-0.7656,-0.77,-0.7745,-0.7789,-0.7819,-0.7841,-0.7885,-0.7949,-0.7989,-0.8069,-0.8133,-0.8194,-0.8222,-0.8219,-0.822,-0.8236,-0.8235,-0.8227,-0.8234,-0.8071,-0.8217,-0.8216,-0.8215,-0.8214,-0.8214,-0.7625,-0.7671,-0.7716,-0.7775,-0.7809,-0.785,-0.7897,-0.7923,-0.7977,-0.8042,-0.8048,-0.8118,-0.8165,-0.8247,-0.8278,-0.8334,-0.8319,-0.8342,-0.8348,-0.8354,-0.8359,-0.8215,-0.8345,-0.8345,-0.8345,-0.8344,-0.8344,0,-0.7749,-0.7777,-0.7831,-0.7893,-0.7939,-0.793,-0.7978,-0.8018,-0.808,-0.8123,-0.8173,-0.8249,-0.831,-0.8346,-0.8408,-0.8447,-0.8447,-0.8463,-0.8461,-0.8468,-0.8367,-0.8348,-0.8461,-0.8461,-0.8461,-0.8461,-0.8461,-0.8461,-0.782,-0.7898,-0.7911,-0.8006,-0.8034,-0.8102,-0.8131,-0.8169,-0.8204,-0.8288,-0.8338,-0.836,-0.8401,-0.8466,-0.8523,-0.8531,-0.8556,-0.8573,-0.8581,-0.8487,-0.8475,-0.8464,-0.8446,-0.8578,-0.8578,-0.8678,-0.8679,-0.8679]},{"header":{"parameterUnit":"m.s-1","parameterCategory":1,"la1":30.2991,"la2":30.254,"lo1":-89.0895,"lo2":-89.0444,"dy":0.0017,"dx":0.0017,"nx":28,"ny":28,"refTime":"2025-05-29T21:00:00:Z","depth":0,"parameterNumber":3,"parameterNumberName":"V-component_of_WINDS"},"data":[0,0,0,0,0,0,0,0,0,0,0,0,0,0,0,0,0,0,0,0,0,0,0,0,0,0,0,0,0,0,0,0,0,0,0,0,0,0,0,0,0,0,0,0,0,0,0,0,0,0,0,0,0,0,0,0,0,0,-5.1629,-5.163,0,-5.1682,-5.1683,-5.1683,-5.1588,-5.1585,-5.1582,-5.1579,-5.1629,-5.1633,-5.1637,0,0,0,0,0,0,0,0,0,0,0,0,0,-5.1441,-5.1445,-5.1629,-5.163,-5.163,-5.1682,-5.1683,-5.1684,-5.1589,-5.1585,-5.1581,-5.1577,-5.1628,-5.1633,-5.1638,0,0,0,0,0,0,0,0,0,0,0,0,0,-5.1511,-5.1446,-5.1629,-5.159,-5.1587,-5.1682,-5.1683,-5.1684,-5.159,-5.1585,-5.158,-5.1576,-5.1626,-5.1632,-5.1638,-5.1774,0,0,-5.1658,-5.1661,0,0,0,0,0,0,0,0,-5.1507,-5.1518,-5.1595,-5.1592,-5.1589,-5.1624,-5.1635,-5.1714,-5.1591,-5.1588,-5.1579,-5.1573,-5.1631,-5.1637,-5.1657,-5.1776,-5.1778,-5.1659,-5.1663,-5.1665,-5.1667,0,0,0,0,0,0,0,-5.1502,-5.1515,-5.165,-5.1596,-5.1593,-5.1567,-5.1572,-5.1649,-5.1635,-5.1588,-5.1581,-5.1589,-5.1628,-5.1651,-5.1657,-5.1779,-5.1659,-5.1664,-5.1668,-5.1671,-5.201,-5.2015,0,0,0,0,0,0,-5.1503,-5.1512,-5.1648,-5.1651,-5.1536,-5.1575,-5.158,-5.1617,-5.1634,-5.1633,-5.1593,-5.1585,-5.1642,-5.165,-5.1659,-5.1817,-5.1665,-5.1671,-5.1675,-5.2005,-5.2011,-5.2016,0,0,0,0,0,0,-5.1499,-5.1516,-5.1646,-5.158,-5.1594,-5.1583,-5.1626,-5.1621,-5.1643,-5.1638,-5.1635,-5.1619,-5.1639,-5.165,-5.1746,-5.1818,-5.1674,-5.168,-5.1999,-5.2007,-5.2014,-5.2136,0,0,0,0,0,0,-5.1494,-5.1515,-5.1568,-5.1582,-5.1598,-5.1734,-5.163,-5.1625,-5.1655,-5.1645,-5.1662,-5.166,-5.1636,-5.1737,-5.1752,-5.1824,-5.1685,-5.1992,-5.2002,-5.2011,-5.2125,-5.2147,-5.2165,0,0,0,0,0,-5.1488,-5.1599,-5.1571,-5.1588,-5.1664,-5.1738,-5.1748,-5.1719,-5.1662,-5.1713,-5.171,-5.1659,-5.1807,-5.1747,-5.1764,-5.1839,-5.1987,-5.1999,-5.2011,-5.2116,-5.2143,-5.2165,0,0,0,0,0,0,-5.1592,-5.16,-5.1569,-5.1689,-5.1714,-5.1722,-5.1787,-5.1748,-5.1789,-5.1777,-5.1738,-5.1743,-5.1846,-5.1852,-5.1785,-5.1969,-5.1887,-5.1903,-5.1962,-5.1987,-5.2007,-5.2003,-5.1691,0,0,0,0,0,-5.163,-5.1691,-5.1694,-5.1799,-5.1814,-5.1799,-5.183,-5.1806,-5.1829,-5.1839,-5.1843,-5.1866,-5.1918,-5.1953,-5.2,-5.2126,-5.2127,-5.2185,-5.2205,-5.2221,-5.2235,-5.2301,-5.2326,-5.2055,-5.2054,-5.2054,0,0,-5.1707,-5.1719,-5.176,-5.1821,-5.1837,-5.19,-5.1808,-5.1878,-5.1924,-5.1849,-5.194,-5.1944,-5.1968,-5.2079,-5.2128,-5.2087,-5.231,-5.2236,-5.2249,-5.2254,-5.2315,-5.2341,-5.2364,-5.2062,-5.2061,-5.206,0,0,-5.1879,-5.1895,-5.1984,-5.2003,-5.203,-5.2019,-5.204,-5.2055,-5.2055,-5.2146,-5.2091,-5.2144,-5.2234,-5.2253,-5.2275,-5.2454,-5.2409,-5.2471,-5.2574,-5.2639,-5.266,-5.2679,-5.2742,-5.2765,-5.2484,-5.2485,-5.2485,0,-5.1971,-5.2065,-5.2034,-5.2109,-5.2137,-5.2073,-5.2162,-5.2181,-5.2222,-5.2242,-5.2195,-5.2307,-5.2318,-5.2433,-5.2477,-5.2497,-5.2519,-5.2468,-5.266,-5.2679,-5.2695,-5.2755,-5.2779,-5.2492,-5.2491,-5.249,-5.249,0,-5.2176,-5.2242,-5.2311,-5.2353,-5.2389,-5.247,-5.245,-5.2489,-5.2462,-5.2455,-5.2548,-5.256,-5.2608,-5.2634,-5.2607,-5.2744,-5.2718,-5.2667,-5.2583,-5.2729,-5.2785,-5.2807,-5.2502,-5.25,-5.2498,-5.2496,0,0,-5.2416,-5.244,-5.2466,-5.2484,-5.2509,-5.2559,-5.2636,-5.2685,-5.2719,-5.2749,-5.2812,-5.289,-5.2842,-5.2867,-5.2842,-5.2899,-5.3039,-5.284,-5.284,-5.2876,-5.319,-5.3228,-5.3255,-5.301,-5.3014,-5.3017,-5.3187,0,-5.2587,-5.2723,-5.2697,-5.2829,-5.2889,-5.2829,-5.2896,-5.2918,-5.2914,-5.2963,-5.2957,-5.3013,-5.2947,-5.2961,-5.3015,-5.3011,-5.3101,-5.2998,-5.3066,-5.3069,-5.3062,-5.3284,-5.3324,-5.3484,-5.3209,-5.3212,-5.3215,0,-5.2804,-5.2844,-5.2982,-5.2997,-5.3021,-5.3083,-5.3125,-5.3173,-5.3196,-5.3188,-5.3216,-5.318,-5.3256,-5.3172,-5.3275,-5.3205,-5.3231,-5.3234,-5.3239,-5.3244,-5.3151,-5.3294,-5.3535,-5.3559,-5.3249,-5.3246,-5.3244,0,-5.2964,-5.3052,-5.3146,-5.3163,-5.3183,-5.3228,-5.3238,-5.3256,-5.3287,-5.3323,-5.3342,-5.3386,-5.341,-5.3445,-5.3421,-5.3362,-5.3527,-5.3442,-5.3522,-5.3523,-5.3559,-5.3557,-5.3807,-5.3578,-5.3577,-5.3577,-5.3576,0,-5.3157,-5.3244,-5.3218,-5.3276,-5.3371,-5.3339,-5.3434,-5.3436,-5.3453,-5.3509,-5.346,-5.3513,-5.3479,-5.3529,-5.3511,-5.3598,-5.3609,-5.3604,-5.3598,-5.3609,-5.3609,-5.3625,-5.3613,-5.3583,-5.3582,-5.358,-5.3579,0,-5.3351,-5.3338,-5.3436,-5.3448,-5.3452,-5.3522,-5.353,-5.3583,-5.3576,-5.3647,-5.3662,-5.3649,-5.3706,-5.3686,-5.3745,-5.3733,-5.3844,-5.3824,-5.3837,-5.3832,-5.3913,-5.3905,-5.4181,-5.4215,-5.3965,-5.3967,-5.3969,0,-5.3475,-5.3541,-5.356,-5.3594,-5.3609,-5.3665,-5.3696,-5.3668,-5.3702,-5.3733,-5.3782,-5.3834,-5.3874,-5.3967,-5.3962,-5.4007,-5.3987,-5.408,-5.3993,-5.4001,-5.3987,-5.3983,-5.3989,-5.4098,-5.4101,-5.4103,-5.4105,0,-5.3696,-5.3686,-5.3734,-5.3781,-5.382,-5.3854,-5.3884,-5.3914,-5.3887,-5.3928,-5.3986,-5.4017,-5.4079,-5.413,-5.4171,-5.4179,-5.4138,-5.4133,-5.4153,-5.4164,-5.4169,-5.4166,-5.3884,-5.4126,-5.4124,-5.4122,-5.4121,-5.412,-5.3858,-5.3914,-5.3936,-5.3991,-5.401,-5.4039,-5.4089,-5.4089,-5.4137,-5.4186,-5.4165,-5.4231,-5.4251,-5.4301,-5.4316,-5.4366,-5.4329,-5.436,-5.4367,-5.4375,-5.4385,-5.4162,-5.4373,-5.4372,-5.4372,-5.4371,-5.4371,0,-5.4076,-5.4087,-5.4138,-5.4182,-5.4225,-5.4184,-5.4214,-5.4252,-5.4312,-5.4335,-5.4376,-5.4441,-5.4491,-5.4491,-5.4537,-5.4577,-5.4559,-5.459,-5.4586,-5.4589,-5.4416,-5.4393,-5.4604,-5.4604,-5.4604,-5.4604,-5.4604,-5.4604,-5.4194,-5.4286,-5.4278,-5.4378,-5.4388,-5.4454,-5.4475,-5.4501,-5.4519,-5.4595,-5.4637,-5.4637,-5.465,-5.4696,-5.474,-5.4738,-5.4757,-5.4795,-5.4786,-5.4624,-5.4601,-5.4579,-5.4557,-5.48,-5.48,-5.4955,-5.4956,-5.4958]}]]